Flag for Canada Weather past 2 weeks in Summerside, Prince Edward Island, Canada

Now
77 °F

Warm.


Feels Like: 79 °F
Forecast: 67 / 81 °F
Wind: 13 mph from Southwest

Location: Summerside Airport

Current Time: Aug 4, 2015 at 11:52:43 AM

Latest Report: Aug 4, 2015 at 11:00 AM


Visibility: N/A

Pressure: 29.85 "Hg

Humidity: 79%

Dew point: 70 °F

Location of SummersideLocation

Historic Weather in Summerside — Graph

°F

Summerside temperature yesterday

Maximum temperature yesterday: 81 °F (at 4:00 PM)
Minimum temperature yesterday: 62 °F (at 6:00 AM)
Average temperature yesterday: 72 °F

Past Weeks' High & Low Weather Summary

 TemperatureHumidityPressure
High81 °F (Aug 3, 4:00 PM)100% (Jul 20, 1:00 PM)30.11 "Hg (Jul 20, 1:00 PM)
Low53 °F (Jul 25, 6:00 AM)63% (Aug 3, 5:00 PM)29.53 "Hg (Jul 22, 8:00 PM)
Average66 °F92%29.83 "Hg
* Reported Jul 20 10:00 AM — Aug 4 10:00 AM, Summerside, Weather by CustomWeather, © 2015

Note: Actual official high and low records may vary slightly from our data, if they occured in-between our weather recording intervals... More about our weather records

Advertising

Summerside weather history for previous 24 hours

 ConditionsComfort  
Time TempWeatherWind HumidityBarometerVisibility
10:00 AM
Tue, Aug 4
76 °FMild.13 mph83%29.85 "HgN/A
9:00 AM74 °FMild.12 mph88%29.85 "HgN/A
8:00 AM69 °FMild.13 mph95%29.85 "HgN/A
7:00 AM70 °FMild.10 mph88%29.85 "HgN/A
6:00 AM69 °FMild.13 mph91%29.85 "HgN/A
5:00 AM69 °FMild.12 mph86%29.85 "HgN/A
4:00 AM69 °FMild.13 mph87%29.86 "HgN/A
3:00 AM68 °FMild.12 mph89%29.85 "HgN/A
2:00 AM68 °FMild.12 mph86%29.88 "HgN/A
1:00 AM68 °FMild.12 mph75%29.88 "HgN/A
12:00 AM68 °FMild.10 mph72%29.89 "HgN/A
11:00 PM
Mon, Aug 3
71 °FMild.13 mph75%29.88 "HgN/A
10:00 PM71 °FMild.15 mph76%29.86 "HgN/A
9:00 PM72 °FMild.10 mph74%29.86 "HgN/A
8:00 PM76 °FMild.13 mph65%29.85 "HgN/A
7:00 PM79 °FWarm.10 mph66%29.82 "HgN/A
6:00 PM80 °FWarm.15 mph63%29.82 "HgN/A
5:00 PM81 °FWarm.17 mph63%29.83 "HgN/A
4:00 PM81 °FWarm.18 mph65%29.84 "HgN/A
3:00 PM81 °FWarm.16 mph71%29.86 "HgN/A
2:00 PM80 °FWarm.16 mph70%29.87 "HgN/A
1:00 PM79 °FWarm.15 mph71%29.87 "HgN/A
12:00 PM77 °FWarm.13 mph72%29.89 "HgN/A
11:00 AM75 °FMild.10 mph74%29.90 "HgN/A
Weather by CustomWeather, © 2015

See weather overviewHow to use our weather pages